Location: Winthrop
(48.4780°N, 120.1850°W)
Time: 00:55:02
(UTC-07:00)

S-56A Canister/Altair - Pass Details

Date: 04 June 2023
Orbit: 640 x 2489 km, 38.9° (Epoch: 29 September)

Event Time Altitude Azimuth Distance (km) Brightness Sun altitude
Rises 21:34:29 0° 228° (SW) 5,314 11.9 -5.6°
Reaches altitude 10° 21:37:51 10° 223° (SW) 4,528 11.4 -6.0°
Maximum altitude 21:50:04 46° 156° (SSE) 3,003 10.1 -7.4°
Drops below altitude 10° 22:03:55 10° 90° (E) 5,108 11.3 -8.9°
Sets 22:07:57 0° 85° (E) 6,028 11.8 -9.4°
